GEFSSE_con_cape1000_156.txt.gz
Probability
19 23 55 45 52 55 58 55 61 61 48 58 55 58 55 61 58 61 58 65 61 61 65 65 61 68 58 68 74 77 77 74 71 61 58 65 65 58 58 52 68 68 81
16 16 52 45 42 48 52 48 52 42 45 52 48 48 48 45 48 48 52 52 52 52 55 52 55 55 52 61 65 65 68 71 71 68 68 71 61 55 58 58 65 58 68
10 13 32 45 39 42 39 39 42 35 35 35 39 35 32 42 35 42 45 42 42 45 48 35 35 39 48 48 52 48 55 55 61 71 77 58 52 61 55 58 55 55 68
10 10 16 39 45 45 42 42 32 29 26 26 19 23 23 23 29 32 32 35 35 32 32 29 29 26 29 39 42 35 42 42 55 68 52 45 39 48 52 58 52 52 65
13 13 19 32 32 35 29 29 26 19 16 16 19 19 19 26 26 26 29 26 26 29 29 26 29 26 26 26 29 29 35 48 61 55 32 42 39 52 48 52 55 45 52
10 13 19 32 26 29 29 23 19 19 19 19 19 19 19 16 19 19 19 16 13 16 19 19 19 19 16 19 29 29 32 48 45 35 32 39 42 48 45 48 45 42 48
13 10 13 26 23 32 23 19 16 19 19 19 19 19 16 6 6 3 3 3 3 6 10 13 13 10 13 19 19 19 23 42 32 35 35 42 45 58 52 52 42 39 55
6 10 6 23 16 23 16 16 13 13 13 13 10 6 0 0 0 3 6 6 10 6 10 10 10 6 10 16 13 13 23 45 19 19 42 42 55 55 48 48 39 35 39
6 3 0 3 10 23 16 16 13 13 13 6 3 3 0 0 0 3 0 3 3 3 6 6 6 10 10 6 10 19 23 45 16 16 23 26 65 52 45 42 35 39 45
6 3 0 0 0 3 10 10 10 6 3 3 3 3 0 0 3 0 0 3 3 3 3 6 6 6 6 6 6 16 26 23 10 13 26 35 61 35 29 39 35 39 42
6 3 3 3 3 3 0 0 3 3 6 3 3 0 3 0 0 0 0 0 0 0 0 6 6 6 6 6 13 29 19 3 6 10 16 55 45 42 23 29 29 39 39
3 3 3 0 0 0 0 0 0 0 3 0 0 0 0 0 0 0 0 3 3 3 3 6 6 13 3 6 6 19 0 3 6 6 19 58 42 35 29 26 39 32 35
0 0 3 0 0 0 0 0 0 0 0 0 0 0 0 0 0 0 0 0 0 0 0 0 0 3 6 6 0 0 0 3 3 10 13 42 35 32 23 26 26 42 45
0 0 0 0 0 0 0 0 0 0 0 0 0 0 0 0 0 0 0 0 0 0 0 0 0 3 0 0 0 0 0 0 3 6 16 45 35 29 23 23 32 39 39
0 0 0 0 0 0 0 0 0 0 0 0 0 0 0 0 0 0 0 0 0 0 0 0 0 0 0 0 0 0 0 0 3 3 6 35 35 29 23 23 32 32 32
0 0 0 0 0 0 0 0 0 0 0 0 0 0 0 0 0 0 0 0 0 0 0 0 0 0 0 0 0 0 3 0 3 3 3 6 35 39 35 26 26 29 39
0 0 0 0 0 0 0 0 0 0 0 0 0 0 0 0 0 0 0 0 0 0 0 0 0 3 0 0 0 3 3 3 0 3 3 3 3 26 39 39 32 26 29
0 3 3 0 0 0 0 0 0 0 0 0 0 0 0 0 0 0 0 0 0 0 0 0 0 0 0 0 0 0 0 0 0 3 3 3 0 6 10 35 42 35 29
0 3 3 0 0 0 0 0 0 0 0 0 0 0 0 0 0 0 0 0 0 0 0 0 0 0 0 0 0 0 0 0 0 0 0 0 3 6 6 10 39 42 35
0 3 3 3 3 0 0 0 0 0 0 0 0 0 0 0 0 0 0 0 0 0 0 0 0 0 0 0 0 0 0 0 0 0 0 0 3 3 6 6 3 3 23
0 3 3 3 3 0 0 0 0 0 0 0 0 0 0 0 0 0 0 0 0 0 0 0 0 0 0 0 0 0 0 0 0 0 3 0 3 3 3 3 10 0 3
0 3 3 3 3 3 0 0 0 0 0 0 0 0 0 0 0 0 0 0 0 0 0 0 0 0 0 0 0 0 0 0 0 0 0 0 3 3 0 6 6 10 3
0 3 3 3 3 3 6 0 0 0 0 0 0 0 0 0 0 0 0 0 0 0 0 0 0 0 0 0 0 0 0 0 0 0 0 0 3 3 0 3 3 6 3
0 0 3 3 3 6 3 0 0 3 0 0 0 0 0 0 0 0 0 0 0 0 0 0 0 0 0 0 0 0 0 0 0 0 0 0 0 3 0 0 3 6 0
3 3 6 3 3 3 3 0 3 0 0 0 0 0 0 0 0 0 0 0 0 0 0 0 0 0 0 0 0 0 0 0 0 0 0 0 0 0 0 0 0 0 0
3 3 6 6 3 3 3 6 3 0 0 0 0 0 0 0 0 0 0 0 0 0 0 0 0 0 0 0 0 0 0 0 0 0 0 0 0 0 0 3 3 0 0

GEFSSE_con_cape1000_162.txt.gz
Probability
10 26 55 65 58 61 68 71 71 71 71 65 61 58 61 61 61 58 61 61 61 58 58 58 58 55 52 52 61 65 65 77 74 74 68 55 58 61 58 61 65 74 71
16 29 55 55 48 58 58 61 61 61 61 55 48 45 52 48 55 55 55 52 48 45 55 52 52 42 42 42 45 48 52 58 65 71 55 45 48 58 58 61 61 68 74
19 26 42 45 48 48 52 52 55 52 45 42 35 39 39 42 42 48 45 45 39 35 32 29 32 39 42 45 45 48 48 52 55 52 42 29 32 55 58 55 58 61 68
13 26 29 55 52 48 45 42 32 32 32 32 32 32 32 32 32 32 26 29 26 23 23 23 26 29 35 35 48 45 48 52 55 45 23 32 26 52 55 52 58 65 58
13 23 35 39 39 39 32 32 29 26 23 23 26 26 26 32 26 26 26 23 23 19 23 19 19 16 23 26 32 42 55 58 45 32 13 16 23 48 52 55 55 55 58
13 23 26 39 32 32 26 23 19 23 19 19 19 26 16 19 16 19 19 19 19 19 13 19 23 16 13 26 35 32 52 48 39 23 16 13 26 48 45 48 52 48 52
10 16 19 32 26 23 23 16 16 19 16 19 13 16 13 6 10 10 13 13 13 10 10 13 13 13 13 19 26 32 42 42 13 13 13 13 32 45 48 45 42 48 39
3 13 16 26 19 13 16 19 19 19 16 6 6 6 3 0 0 6 10 10 10 10 6 6 6 6 13 19 26 29 39 35 10 19 13 16 42 42 35 39 35 42 48
3 3 6 6 10 16 16 16 13 10 6 6 6 6 0 0 0 3 3 10 10 10 10 6 6 6 6 13 19 26 32 35 3 10 10 19 52 45 35 35 29 45 45
0 3 3 3 3 3 6 13 13 6 6 10 10 6 6 6 3 3 6 3 3 10 10 10 10 6 10 13 13 16 32 10 3 10 3 23 61 39 29 32 32 39 42
0 0 0 0 0 0 3 3 10 10 3 6 3 3 3 0 0 0 0 10 10 6 6 10 13 10 13 10 6 13 10 0 3 0 3 42 55 35 26 29 26 29 35
0 0 0 0 0 0 0 0 0 3 0 0 0 0 0 0 0 0 0 3 3 0 0 3 10 3 0 0 0 0 0 0 0 0 6 55 52 35 35 32 32 26 39
0 0 0 0 0 0 0 0 0 0 0 0 0 0 0 0 0 0 0 0 0 0 0 3 0 0 0 0 0 0 0 0 0 0 13 45 45 32 32 35 29 26 29
0 0 0 0 0 0 0 0 0 0 0 0 0 0 0 0 0 0 0 0 0 0 0 0 0 0 0 0 0 0 0 0 0 0 10 39 45 35 23 29 29 29 32
0 0 0 0 0 0 0 0 0 0 0 0 0 0 0 0 0 0 0 0 0 0 0 0 0 0 0 0 0 0 0 0 0 0 3 26 42 39 35 29 23 29 26
0 0 0 0 0 0 0 0 0 0 0 0 0 0 0 0 0 0 0 0 0 0 0 0 0 0 0 0 0 0 0 0 0 0 3 3 26 42 39 26 23 26 29
0 0 0 0 0 0 0 0 0 0 0 0 0 0 0 0 0 0 0 0 0 0 0 0 0 0 0 0 0 0 0 0 0 0 3 3 3 19 29 35 35 32 32
0 0 0 0 0 0 0 0 0 0 0 0 0 0 0 0 0 0 0 0 0 0 0 0 0 0 0 0 0 0 0 0 0 0 0 0 3 3 6 32 29 35 32
0 0 0 0 0 0 0 0 0 0 0 0 0 0 0 0 0 0 0 0 0 0 0 0 0 0 0 0 0 0 0 0 0 0 0 0 0 0 0 3 16 26 26
0 0 0 0 0 0 0 0 0 0 0 0 0 0 0 0 0 0 0 0 0 0 0 0 0 0 0 0 0 0 0 0 0 0 0 0 0 0 0 0 3 6 19
3 0 0 0 0 0 0 0 0 0 0 0 0 0 0 0 0 0 0 0 0 0 0 0 0 0 0 0 0 0 0 0 0 0 0 0 0 0 0 0 0 0 0
3 0 0 0 0 0 0 0 0 0 0 0 0 0 0 0 0 0 0 0 0 0 0 0 0 0 0 0 0 0 0 0 0 0 0 0 0 0 0 0 0 0 0
0 3 3 3 0 0 0 0 0 0 0 0 0 0 0 0 0 0 0 0 0 0 0 0 0 0 0 0 0 0 0 0 0 0 0 0 0 0 0 0 0 0 0
0 3 3 3 3 0 0 0 0 0 0 0 0 0 0 0 0 0 0 0 0 0 0 0 0 0 0 0 0 0 0 0 0 0 0 0 0 0 0 0 0 0 0
0 3 3 3 3 0 0 0 0 0 0 0 0 0 0 0 0 0 0 0 0 0 0 0 0 0 0 0 0 0 0 0 0 0 0 0 0 0 0 0 0 0 0
0 3 3 3 3 0 0 0 0 0 0 0 0 0 0 0 0 0 0 0 0 0 0 0 0 0 0 0 0 0 0 0 0 0 0 0 0 0 0 0 0 0 0

GEFSSE_con_cape1000_168.txt.gz
Probability
6 10 35 45 48 48 48 55 58 61 61 61 65 55 52 55 55 58 52 58 55 55 52 52 42 42 42 45 58 71 74 74 71 65 61 58 65 65 65 61 65 68 68
10 10 35 45 48 48 48 48 48 45 52 52 52 48 48 42 42 45 48 45 39 45 48 52 48 45 42 45 52 61 61 61 55 48 48 48 61 65 58 65 68 65 58
10 16 26 39 45 42 48 48 45 42 42 42 39 42 39 42 35 39 35 35 29 29 35 35 35 42 42 42 52 55 55 52 42 35 32 23 29 55 55 65 71 71 65
10 10 19 39 45 39 35 35 39 39 39 39 35 39 32 19 26 23 26 23 26 29 32 39 35 35 39 45 48 48 45 42 42 29 16 19 29 52 52 61 61 65 74
6 10 19 32 29 29 29 29 29 29 29 29 19 13 16 13 16 19 19 16 16 19 19 26 29 32 35 39 52 52 52 48 39 19 10 6 19 42 55 48 52 58 61
10 10 13 29 26 26 23 23 26 19 23 16 16 10 10 16 16 16 16 13 10 10 16 16 19 26 35 35 48 45 48 39 26 10 10 10 23 42 42 45 55 45 55
10 10 10 23 19 19 19 13 16 13 16 13 6 6 6 6 6 10 10 10 10 10 10 10 13 16 19 32 48 39 39 39 6 10 10 10 23 42 35 35 48 45 42
10 10 6 13 19 19 13 16 10 10 6 6 3 3 6 6 6 10 10 10 10 6 6 10 13 6 10 16 29 39 39 29 13 10 13 10 35 42 45 45 39 42 45
3 3 3 3 6 6 6 6 10 10 6 6 3 0 0 3 3 6 6 6 6 6 10 6 3 6 13 16 19 26 29 26 3 6 10 10 42 39 39 42 39 35 42
0 3 3 3 3 3 3 3 3 6 6 3 3 3 3 3 0 3 6 6 6 3 10 6 10 3 6 10 19 23 19 6 3 6 6 13 39 39 29 35 45 39 42
0 0 3 0 0 0 0 3 3 3 3 0 0 0 0 0 0 0 0 3 6 6 6 16 10 6 3 6 6 13 3 3 3 3 3 26 32 29 32 39 42 29 35
0 0 0 0 0 0 0 0 0 0 0 0 0 0 0 0 0 0 0 0 3 3 3 6 6 3 0 0 6 3 0 0 0 0 0 35 35 29 32 39 42 35 39
0 0 0 0 0 0 0 0 0 0 0 0 0 0 0 0 0 0 0 0 0 0 0 0 0 0 0 0 0 0 0 0 0 0 10 29 23 19 26 39 39 42 39
0 0 0 0 0 0 0 0 0 0 0 0 0 0 0 0 0 0 0 0 0 0 0 0 0 0 0 0 0 0 0 0 0 0 3 23 29 23 19 32 32 42 29
0 0 0 0 0 0 0 0 0 0 0 0 0 0 0 0 0 0 0 0 0 0 0 0 0 0 0 0 0 0 0 0 0 0 3 13 19 16 13 23 19 32 32
0 0 0 0 0 0 0 0 0 0 0 0 0 0 0 0 0 0 0 0 0 0 0 0 0 0 0 0 0 0 0 0 0 0 0 3 13 19 19 13 16 26 26
0 0 0 0 0 0 0 0 0 0 0 0 0 0 0 0 0 0 0 0 0 0 0 0 0 0 0 0 0 0 0 0 0 3 3 3 3 3 6 6 23 26 29
0 0 0 0 0 0 0 0 0 0 0 0 0 0 0 0 0 0 0 0 0 0 0 0 0 0 0 0 0 0 0 0 0 0 3 3 3 3 3 6 10 19 19
0 0 0 0 0 0 0 0 0 0 0 0 0 0 0 0 0 0 0 0 0 0 0 0 0 0 0 0 0 0 0 0 0 0 0 0 0 0 0 0 3 6 10
0 0 0 0 0 0 0 0 0 0 0 0 0 0 0 0 0 0 0 0 0 0 0 0 0 0 0 0 0 0 0 0 0 0 0 0 0 0 0 0 0 0 0
0 0 0 0 0 0 0 0 0 0 0 0 0 0 0 0 0 0 0 0 0 0 0 0 0 0 0 0 0 0 0 0 0 0 0 0 0 0 0 0 0 0 0
0 0 0 0 0 0 0 0 0 0 0 0 0 0 0 0 0 0 0 0 0 0 0 0 0 0 0 0 0 0 0 0 0 0 0 0 0 0 0 0 0 0 0
0 0 0 0 0 0 0 0 0 0 0 0 0 0 0 0 0 0 0 0 0 0 0 0 0 0 0 0 0 0 0 0 0 0 0 0 0 0 0 0 0 0 0
0 0 0 0 0 0 0 0 0 0 0 0 0 0 0 0 0 0 0 0 0 0 0 0 0 0 0 0 0 0 0 0 0 0 0 0 0 0 0 0 0 0 0
0 0 0 0 0 0 0 0 0 0 0 0 0 0 0 0 0 0 0 0 0 0 0 0 0 0 0 0 0 0 0 0 0 0 0 0 0 0 0 0 0 0 0
0 0 0 0 0 0 0 0 0 0 0 0 0 0 0 0 0 0 0 0 0 0 0 0 0 0 0 0 0 0 0 0 0 0 0 0 0 0 0 0 0 0 0

GEFSSE_con_cape1000_174.txt.gz
Probability
6 16 23 35 39 45 55 52 55 52 55 58 48 48 48 52 45 45 52 45 48 45 45 45 45 48 45 52 58 65 65 61 58 58 58 58 68 68 61 58 61 65 68
10 16 35 39 42 42 52 48 45 42 48 52 45 45 45 39 39 29 39 35 32 35 45 39 42 45 42 42 48 55 55 48 42 55 45 65 65 65 65 61 71 74 68
10 13 26 32 35 39 45 35 42 39 39 39 42 35 32 29 26 29 32 32 29 29 35 35 42 45 45 48 45 48 48 42 39 35 39 48 52 65 71 61 65 71 65
6 13 13 35 35 39 42 35 35 42 35 32 23 19 19 23 23 26 29 29 29 32 35 35 42 45 48 45 48 48 45 35 32 29 23 39 35 55 55 58 58 58 71
3 3 13 29 23 29 32 35 26 26 23 16 13 13 19 19 23 16 19 19 19 23 29 32 42 42 42 45 48 42 39 35 29 29 26 39 52 55 45 58 55 52 58
3 3 13 19 19 26 23 26 19 16 16 13 13 13 16 16 16 16 13 16 16 19 16 16 19 26 35 42 35 39 39 35 23 26 32 32 48 48 55 58 52 52 45
3 6 6 6 13 19 10 13 10 10 10 6 10 10 10 10 10 10 6 10 13 13 13 13 19 23 26 32 35 32 35 35 32 26 26 32 52 42 42 48 48 55 48
3 6 6 10 6 3 6 6 6 6 6 6 6 0 3 3 3 3 3 10 10 10 16 13 16 16 13 23 29 29 32 26 19 13 23 26 39 32 29 32 29 39 42
6 6 6 6 3 3 3 6 6 6 6 3 0 0 0 0 3 3 3 6 16 16 10 10 10 16 19 23 19 32 26 19 26 13 10 26 35 32 29 39 35 42 35
6 6 6 6 3 3 6 3 3 6 3 0 0 0 0 0 3 3 6 3 6 6 10 10 10 10 13 23 10 13 13 16 16 13 16 29 45 32 29 29 39 35 32
6 6 6 3 3 3 3 0 3 0 3 0 0 0 0 0 0 3 3 6 6 3 10 6 6 3 3 13 23 13 10 10 10 10 19 35 39 26 26 26 26 32 35
3 3 3 3 3 3 3 3 0 0 0 0 0 0 0 0 0 3 3 6 3 6 10 3 3 0 3 3 3 10 6 6 10 13 19 32 35 26 29 29 29 29 32
3 3 3 3 0 3 3 0 0 0 0 0 0 0 0 0 0 0 3 3 0 0 0 6 6 6 3 3 3 3 6 6 10 10 13 35 32 23 26 29 39 32 35
3 3 3 3 0 0 0 0 0 0 0 0 0 0 0 0 0 0 0 0 0 0 0 3 3 3 0 3 3 3 3 6 10 10 23 23 26 19 19 23 29 32 29
0 3 3 3 0 0 0 0 0 0 0 0 0 0 0 0 0 0 0 0 0 0 0 0 0 0 3 3 3 0 0 0 3 13 19 19 23 16 19 19 19 23 32
3 3 3 0 0 0 0 0 0 0 0 0 0 0 0 0 0 0 0 0 0 0 0 0 0 0 0 6 0 3 3 3 3 3 3 3 10 10 16 19 16 13 23
0 3 3 3 0 0 0 0 0 0 0 0 0 0 0 0 0 0 0 0 0 0 0 0 0 0 0 3 3 0 0 3 0 0 3 3 3 3 6 10 10 13 16
0 3 3 0 0 0 0 0 0 0 0 0 0 0 0 0 0 0 0 0 0 0 0 0 3 3 3 3 3 3 0 3 0 3 6 10 10 3 10 3 6 10 10
0 0 0 0 0 0 0 0 0 0 0 0 0 0 0 0 0 0 0 0 0 0 0 0 3 3 0 3 6 0 0 0 0 6 6 6 6 6 3 3 3 3 6
0 0 3 0 0 0 0 0 0 0 0 0 0 0 0 0 0 0 0 0 0 0 0 0 0 3 0 0 0 0 3 0 3 3 3 6 6 3 3 3 3 3 3
0 3 3 0 0 0 0 0 0 0 0 0 0 0 0 0 0 0 0 0 0 0 0 0 0 0 3 3 6 3 3 3 3 3 3 3 3 3 3 3 3 3 3
0 3 3 3 0 0 0 0 0 0 0 0 0 0 0 0 0 0 0 0 0 0 0 0 0 3 0 0 0 0 0 3 3 3 3 3 3 3 3 3 0 3 3
0 3 3 3 3 0 0 0 0 0 0 0 0 0 0 0 0 0 0 0 0 0 0 0 0 0 0 0 0 0 0 3 3 3 3 3 3 3 3 3 0 0 0
0 0 3 3 3 3 3 3 0 0 0 0 0 0 0 0 0 0 0 0 0 0 0 0 0 0 0 0 0 0 0 0 3 3 3 3 3 3 3 0 0 0 0
0 0 0 3 3 3 3 3 0 0 0 0 0 0 0 0 0 0 0 0 0 0 0 0 0 0 0 0 0 0 0 0 0 3 3 3 3 3 3 0 0 0 0
0 0 0 3 3 3 3 3 0 0 0 0 0 0 0 0 0 0 0 0 0 0 0 0 0 0 0 0 0 0 0 0 0 0 0 3 0 0 0 0 0 3 0

GEFSSE_con_cape1000_180.txt.gz
Probability
23 13 58 58 58 61 58 58 58 55 48 48 48 39 39 39 45 42 52 52 42 45 45 48 48 42 48 52 58 58 61 58 52 61 68 74 71 71 74 74 74 74 81
16 13 52 58 55 52 58 52 52 52 45 48 35 35 35 35 35 35 32 39 39 39 39 42 39 48 45 45 48 48 45 42 52 58 65 68 71 74 74 74 74 65 71
13 13 32 48 52 42 42 39 35 35 32 29 32 29 29 32 32 32 29 29 35 39 42 42 39 39 45 48 48 39 35 32 39 52 65 52 61 68 68 74 77 68 68
13 13 16 45 39 42 39 35 35 26 19 19 26 19 26 29 26 23 26 29 32 35 39 39 39 39 42 42 42 39 29 42 45 52 42 42 35 61 61 68 68 61 65
6 10 19 32 26 23 19 23 19 23 16 16 19 19 23 19 26 23 23 26 26 19 26 32 35 35 35 42 39 39 32 42 55 45 39 39 32 52 61 61 61 55 55
6 3 10 23 19 16 16 13 13 16 16 13 10 13 16 16 19 19 16 16 16 19 23 29 29 26 35 39 42 32 35 39 42 23 39 35 32 58 55 58 58 58 52
6 3 6 16 13 16 13 6 6 13 10 6 6 10 6 10 10 10 10 13 13 16 23 29 32 29 39 35 35 29 39 45 26 26 29 32 32 58 55 55 58 48 42
3 3 6 13 6 6 6 6 6 6 6 6 0 3 3 10 10 10 6 10 6 10 6 13 16 19 16 23 23 23 23 42 23 16 32 26 58 58 45 52 52 35 42
3 3 3 6 3 3 3 3 6 6 3 0 0 0 3 3 6 10 10 10 10 10 10 10 13 13 16 13 16 23 26 42 10 6 19 19 55 39 32 39 48 48 42
6 6 3 3 0 0 3 3 3 6 0 0 0 0 0 6 10 16 16 10 10 6 6 6 10 10 10 10 10 13 23 23 10 10 10 23 52 35 35 39 45 45 45
6 6 6 3 0 0 0 3 0 3 0 0 0 0 0 3 3 3 6 10 6 6 6 6 6 6 10 6 10 16 10 10 10 10 10 42 45 35 35 29 35 35 35
6 6 6 3 0 0 0 0 0 0 0 0 0 0 0 3 0 0 6 10 6 6 6 6 10 6 6 6 6 16 3 3 3 3 16 45 39 35 35 42 35 35 39
3 3 3 0 0 0 0 0 0 0 0 0 0 0 0 0 0 0 3 3 3 3 0 0 6 3 3 3 3 3 3 3 3 3 19 45 39 32 35 39 35 35 32
3 0 0 0 0 0 0 0 0 0 0 0 0 0 0 0 0 3 3 0 0 0 0 0 3 0 0 3 0 0 3 0 0 3 16 45 39 32 26 29 26 26 26
0 0 0 0 0 0 0 0 0 0 0 0 0 0 0 0 0 0 0 0 0 0 0 0 0 0 0 0 3 3 3 3 3 3 13 26 29 19 19 19 19 23 26
0 0 0 3 0 0 0 0 0 0 0 0 0 0 0 0 0 0 0 0 0 0 0 0 0 0 0 3 3 3 3 0 0 6 3 6 23 13 10 16 16 19 16
3 3 3 0 0 0 0 0 0 0 0 0 0 0 0 0 0 0 0 0 0 0 0 0 0 0 0 0 3 3 0 0 0 3 3 3 3 10 13 13 16 23 16
0 0 0 0 0 0 0 0 0 0 0 0 0 0 0 0 0 0 0 0 0 0 0 0 0 0 0 0 0 0 0 0 3 3 3 3 3 3 6 10 10 10 10
0 0 0 0 0 0 0 0 0 0 0 0 0 0 0 0 0 0 0 0 0 0 0 0 0 0 0 0 0 0 0 0 0 0 3 3 6 6 3 3 6 6 10
0 0 0 0 0 0 0 0 0 0 0 0 0 0 0 0 0 0 0 0 0 0 0 0 0 3 0 0 0 0 0 0 0 0 0 3 3 3 3 3 6 0 3
0 0 0 0 0 0 0 0 0 0 0 0 0 0 0 0 0 0 0 0 0 0 0 0 0 0 0 0 0 0 0 0 0 0 3 3 3 3 3 6 6 3 0
0 3 0 0 0 0 0 0 0 0 0 0 0 0 0 0 0 0 0 0 0 0 0 0 0 0 0 0 0 0 0 0 0 0 3 3 0 6 6 6 6 6 0
0 3 3 0 0 0 0 0 0 0 0 0 0 0 0 0 0 0 0 0 0 0 0 0 0 0 0 0 0 0 0 0 0 0 0 0 0 0 3 0 0 0 0
0 0 3 3 0 0 0 0 0 0 0 0 0 0 0 0 0 0 0 0 0 0 0 0 0 0 0 0 0 0 0 0 0 0 0 0 0 0 0 3 0 0 0
0 0 0 3 0 0 0 0 0 0 0 0 0 0 0 0 0 0 0 0 0 0 0 0 0 0 0 0 0 0 0 0 0 0 0 0 0 0 0 0 0 0 0
0 0 0 0 3 3 0 0 0 0 0 0 0 0 0 0 0 0 0 0 0 0 0 0 0 0 0 0 0 0 0 0 0 0 0 0 0 0 0 0 0 0 0

GEFSSE_con_cape1000_186.txt.gz
Probability
6 29 52 52 61 65 65 58 52 48 52 52 45 45 52 55 55 48 48 52 55 55 52 55 55 52 45 58 58 61 61 61 61 65 71 74 81 77 77 68 65 74 81
13 29 52 55 61 52 52 52 48 42 39 42 39 39 32 39 35 42 42 39 42 48 48 48 48 48 42 52 52 52 52 48 48 55 61 58 71 77 71 71 65 65 74
16 26 42 55 45 45 39 35 35 35 29 32 29 32 32 32 35 39 42 39 39 42 42 45 42 39 35 45 42 42 45 42 48 55 42 32 48 74 61 61 61 65 61
10 16 23 45 39 39 32 26 23 29 26 23 26 26 26 29 23 26 32 32 32 35 35 39 42 39 32 35 39 42 39 48 52 39 19 23 29 52 55 61 58 58 48
6 6 23 29 26 26 23 23 23 23 19 23 23 23 23 23 19 23 26 26 26 26 32 29 29 35 39 32 39 42 45 42 35 13 3 13 23 45 45 52 48 48 48
6 6 16 23 19 16 16 19 19 19 16 16 19 16 19 16 16 19 19 23 26 23 23 26 32 35 32 26 23 39 32 32 13 6 6 3 29 45 55 48 52 48 48
6 6 13 19 16 13 13 6 6 10 3 13 13 13 13 13 10 10 10 13 16 19 19 19 26 32 19 19 29 39 32 23 6 6 6 6 35 52 52 52 58 55 45
6 6 6 13 13 6 6 6 6 6 3 6 6 10 10 10 13 10 10 13 10 10 16 19 19 13 16 23 26 39 26 26 10 6 6 10 45 39 39 35 39 42 39
6 6 3 3 6 6 6 6 6 3 3 0 3 6 10 10 13 13 10 6 10 13 13 13 16 10 13 19 23 26 26 16 6 6 6 13 45 45 39 32 39 32 32
6 3 3 3 3 3 3 6 6 3 0 0 0 10 10 13 13 13 10 6 10 10 6 10 10 6 10 13 19 19 19 6 6 6 6 16 42 32 32 35 32 35 32
3 0 0 0 0 0 0 3 0 0 0 0 0 3 0 0 0 6 10 6 6 6 6 3 3 6 10 3 13 23 10 3 0 3 10 32 42 35 29 29 39 39 35
3 0 0 0 0 0 0 0 0 0 0 0 0 0 0 0 0 0 3 6 6 6 6 3 3 6 0 0 0 3 0 0 0 6 19 45 45 39 32 35 35 29 32
0 0 0 0 0 0 0 0 0 0 0 0 0 0 0 0 0 0 0 0 0 0 0 0 0 0 0 0 0 0 0 0 0 3 13 45 39 35 32 29 29 29 29
0 0 0 0 0 0 0 0 0 0 0 0 0 0 0 0 0 0 0 0 0 0 0 0 0 0 0 0 0 0 0 0 0 0 6 42 29 19 23 23 26 26 29
0 0 0 0 0 0 0 0 0 0 0 0 0 0 0 0 0 0 0 0 0 0 0 0 0 0 0 0 0 0 0 0 0 0 6 29 26 19 23 16 26 23 23
0 0 0 0 0 0 0 0 0 0 0 0 0 0 0 0 0 0 0 0 0 0 0 0 0 0 0 0 0 0 0 0 0 3 6 10 23 19 16 19 16 23 16
0 0 0 0 0 0 0 0 0 0 0 0 0 0 0 0 0 0 0 0 0 0 0 0 0 0 0 0 0 0 0 0 0 0 3 3 3 10 13 13 13 13 23
0 0 0 0 0 0 0 0 0 0 0 0 0 0 0 0 0 0 0 0 0 0 0 0 0 0 0 0 0 0 0 0 0 0 3 3 3 6 6 13 10 10 13
0 0 0 0 0 0 0 0 0 0 0 0 0 0 0 0 0 0 0 0 0 0 0 0 0 0 0 0 0 0 0 0 0 0 0 3 3 3 3 3 6 10 10
0 0 0 0 0 0 0 0 0 0 0 0 0 0 0 0 0 0 0 0 0 0 0 0 0 0 0 0 0 0 0 0 0 0 0 0 3 0 0 0 0 0 3
0 0 0 0 0 0 0 0 0 0 0 0 0 0 0 0 0 0 0 0 0 0 0 0 0 0 0 0 0 0 0 0 0 0 0 0 3 3 0 0 0 0 0
0 0 0 0 0 0 0 0 0 0 0 0 0 0 0 0 0 0 0 0 0 0 0 0 0 0 0 0 0 0 0 0 0 0 0 0 0 0 0 0 0 0 0
0 0 0 0 0 0 0 0 0 0 0 0 0 0 0 0 0 0 0 0 0 0 0 0 0 0 0 0 0 0 0 0 0 0 0 0 0 0 0 0 0 0 0
0 0 0 0 0 0 0 0 0 0 0 0 0 0 0 0 0 0 0 0 0 0 0 0 0 0 0 0 0 0 0 0 0 0 0 0 0 0 0 0 0 0 0
0 0 0 0 0 0 0 0 0 0 0 0 0 0 0 0 0 0 0 0 0 0 0 0 0 0 0 0 0 0 0 0 0 0 0 0 0 0 0 0 0 0 0
0 0 0 0 0 0 0 0 0 0 0 0 0 0 0 0 0 0 0 0 0 0 0 0 0 0 0 0 0 0 0 0 0 0 0 0 0 0 0 0 0 0 0